Location: ????????
(55.5667°N, 37.5833°E)
Time: 19:59:09
(UTC+00:00)

Cosmos 921 Rocket - Pass Details

Date: 14 April 2026
Orbit: 563 x 620 km, 75.8° (Epoch: 19 May)

Event Time Altitude Azimuth Distance (km) Brightness Sun altitude
Rises 20:51:14 0° 331° (NNW) 2,909 7.7 -24.3°
Reaches altitude 10° 20:53:35 10° 324° (NW) 1,995 6.5 -24.3°
Enters shadow 20:57:30 40° 265° (W) 918 3.9 -24.4°
